Change the Weather History Date:

Saturday, September 7, 2013

  Actual Average Record
Temperature  
Mean Temperature 65 °F 64 °F  
Max Temperature 76 °F 74 °F 97 °F (1984)
Min Temperature 53 °F 54 °F 39 °F (1927)
Degree Days  
Heating Degree Days 0 2  
Month to date heating degree days 0 14  
Since 1 July heating degree days 50 150  
Cooling Degree Days 0 1  
Month to date cooling degree days 30 7  
Year to date cooling degree days 155 62  
Growing Degree Days 14 (Base 50)    
Moisture  
Dew Point 55 °F    
Average Humidity 74    
Maximum Humidity 93    
Minimum Humidity 54    
Precipitation  
Precipitation 0.00 in 0.01 in 1.10 in (1958)
Month to date precipitation 0.00 0.02  
Year to date precipitation 2.50 9.78  
Since 1 July precipitation 0.01 0.07  
Sea Level Pressure  
Sea Level Pressure 29.89 in    
Wind  
Wind Speed 4 mph (WNW)    
Max Wind Speed 13 mph    
Max Gust Speed 17 mph    
Visibility 5 miles    
Events Fog    
T = Trace of Precipitation, MM = Missing Value Source: NWS Daily Summary

Daily Weather History Graph

Daily Weather History Graph

Search for Another Location

Airport or City:

Trip Planner

Search our weather history database for the weather conditions in past years. The results will help you decide how hot, cold, wet, or windy it might be!

Date:

Astronomy

Sep. 07, 2013 Rise Set
Actual Time 6:39 AM PDT 7:19 PM PDT
Civil Twilight 6:13 AM PDT 7:45 PM PDT
Nautical Twilight 5:43 AM PDT 8:15 PM PDT
Astronomical Twilight 5:12 AM PDT 8:45 PM PDT
Moon 8:51 AM PDT (9/7) 8:29 PM PDT (9/7)
Length of Visible Light 13h 31m
Length of Day
12h 40m
Waxing Crescent, 6% of the Moon is Illuminated
Sep 7
Waxing Crescent
Sep 12
First Quarter
Sep 19
Full
Sep 26
Last Quarter
Oct 4
New

Hourly Weather History & Observations

Time (PDT) Temp. Dew Point Humidity Pressure Visibility Wind Dir Wind Speed Gust Speed Precip Events Conditions
12:51 AM 57.9 °F 52.0 °F 81% 29.88 in 10.0 mi Calm Calm - N/A   Clear
1:51 AM 57.0 °F 50.0 °F 77% 29.87 in 10.0 mi Calm Calm - N/A   Clear
2:51 AM 54.0 °F 50.0 °F 86% 29.87 in 9.0 mi Calm Calm - N/A   Clear
3:05 AM 53.6 °F 50.0 °F 88% 29.87 in 10.0 mi Calm Calm - N/A   Scattered Clouds
3:14 AM 55.4 °F 50.0 °F 82% 29.86 in 10.0 mi Calm Calm - N/A   Mostly Cloudy
3:32 AM 55.4 °F 53.6 °F 94% 29.87 in 1.0 mi Calm Calm - N/A   Overcast
3:37 AM 55.4 °F 53.6 °F 94% 29.87 in 0.2 mi Calm Calm - N/A Fog Fog
3:51 AM 55.9 °F 54.0 °F 93% 29.87 in 0.2 mi Calm Calm - N/A Fog Fog
4:03 AM 55.4 °F 53.6 °F 94% 29.87 in 0.2 mi Calm Calm - N/A Fog Fog
4:27 AM 55.4 °F 53.6 °F 94% 29.86 in 0.2 mi Calm Calm - N/A Fog Fog
4:43 AM 55.4 °F 53.6 °F 94% 29.87 in 0.8 mi Calm Calm - N/A   Overcast
4:46 AM 55.4 °F 53.6 °F 94% 29.87 in 1.5 mi Calm Calm - N/A   Overcast
4:51 AM 55.9 °F 54.0 °F 93% 29.87 in 2.5 mi Calm Calm - N/A   Overcast
4:58 AM 53.6 °F 51.8 °F 94% 29.87 in 7.0 mi Calm Calm - N/A   Overcast
5:20 AM 55.4 °F 53.6 °F 94% 29.87 in 1.5 mi Calm Calm - N/A   Overcast
5:23 AM 55.4 °F 53.6 °F 94% 29.87 in 0.8 mi Calm Calm - N/A   Overcast
5:33 AM 55.4 °F 53.6 °F 94% 29.87 in 0.2 mi ESE 3.5 mph - N/A Fog Fog
5:51 AM 55.9 °F 54.0 °F 93% 29.88 in 0.2 mi ESE 3.5 mph - N/A Fog Fog
5:55 AM 55.4 °F 53.6 °F 94% 29.87 in 0.5 mi ESE 3.5 mph - N/A Fog Fog
6:11 AM 55.4 °F 53.6 °F 94% 29.87 in 6.0 mi Calm Calm - N/A   Partly Cloudy
6:51 AM 54.0 °F 52.0 °F 93% 29.88 in 6.0 mi Calm Calm - N/A   Clear
7:51 AM 55.9 °F 53.1 °F 90% 29.90 in 0.2 mi Calm Calm - N/A Fog Fog
7:58 AM 55.4 °F 53.6 °F 94% 29.89 in 0.2 mi Calm Calm - N/A Fog Fog
8:09 AM 55.4 °F 55.4 °F 100% 29.90 in 0.2 mi Calm Calm - N/A Fog Fog
8:32 AM 57.2 °F 55.4 °F 94% 29.91 in 1.0 mi Calm Calm - N/A   Mist
8:42 AM 57.2 °F 55.4 °F 94% 29.91 in 5.0 mi WNW 3.5 mph - N/A   Scattered Clouds
8:51 AM 57.9 °F 55.0 °F 90% 29.91 in 5.0 mi WNW 3.5 mph - N/A   Partly Cloudy
9:51 AM 64.9 °F 55.9 °F 73% 29.92 in 8.0 mi Calm Calm - N/A   Clear
10:51 AM 71.1 °F 57.0 °F 61% 29.92 in 10.0 mi WNW 5.8 mph - N/A   Clear
11:51 AM 73.9 °F 57.0 °F 55% 29.91 in 10.0 mi NW 8.1 mph - N/A   Clear
12:51 PM 73.0 °F 57.0 °F 57% 29.91 in 10.0 mi West 9.2 mph - N/A   Clear
1:51 PM 75.0 °F 57.0 °F 53% 29.89 in 10.0 mi WNW 9.2 mph - N/A   Clear
2:51 PM 73.9 °F 57.9 °F 57% 29.88 in 10.0 mi WNW 12.7 mph - N/A   Clear
3:51 PM 73.0 °F 57.9 °F 59% 29.88 in 10.0 mi NW 10.4 mph - N/A   Clear
4:51 PM 70.0 °F 57.0 °F 63% 29.88 in 10.0 mi NW 9.2 mph - N/A   Clear
5:51 PM 66.9 °F 57.0 °F 70% 29.88 in 9.0 mi WNW 8.1 mph - N/A   Clear
6:51 PM 62.1 °F 55.9 °F 80% 29.88 in 7.0 mi WNW 8.1 mph - N/A   Scattered Clouds
7:28 PM 60.8 °F 55.4 °F 82% 29.88 in 5.0 mi WNW 5.8 mph - N/A   Mostly Cloudy
7:51 PM 60.1 °F 55.9 °F 86% 29.89 in 6.0 mi WNW 5.8 mph - N/A   Mostly Cloudy
8:24 PM 60.8 °F 55.4 °F 82% 29.89 in 5.0 mi WNW 4.6 mph - N/A   Overcast
8:51 PM 60.1 °F 57.0 °F 90% 29.91 in 5.0 mi NNW 4.6 mph - N/A   Overcast
9:51 PM 59.0 °F 57.0 °F 93% 29.91 in 4.0 mi Calm Calm - N/A   Overcast
10:51 PM 60.1 °F 57.0 °F 90% 29.91 in 4.0 mi Calm Calm - N/A   Overcast
11:51 PM 60.1 °F 55.9 °F 86% 29.90 in 5.0 mi Calm Calm - N/A   Overcast